DECAYED

CZ-4B DEB, 46483 (Decayed)

Orbit data source: Space-Track

CZ-4B DEB, 46483 was space debris in LEO originally from a launch on Sun, 27 Sep 2020 UTC launched from the Taiyaun Space Center, China (TSC). Debris objects in space refer to the collection of defunct objects orbiting the Earth. Examples of debris include non-operational satellites, rocket bodies, and fragments generated from explosions, collisions, or faulty payload assembly.

Not visible in the next 10 days
Identifier
46483, 2020-067F
Orbit
Decayed
Country
Flag of CNCN / PRC
Related business
Manufacturer
SAST
Mission
Decayed spacecraft
Bus & Motor
Unknown
Mass
Unknown
Launch date (UTC)
2020-09-27 (6 years ago)
Launch vehicle
Unknown
Launch site
Taiyaun Space Center, China (TSC)
Object type
Payload
Rocket body
Debris
Shape & HBR
Unknown shape, 0.1 m
Radar Cross Section
Small (<0.1 m²)

Expand to show TLE details & history
Last TLE update: 1 year ago

TLE from 1 year ago
0 CZ-4B DEB
1 46483U 20067F   25030.37615339  .03907863  27349-5  22208-2 0  9999
2 46483  97.9294 184.1521 0011951 341.6384  18.4469 16.18960428239028
Epoch: 2025-01-30T09:01Z
TLE epoch observation values (Epoch: 2025-01-30T09:01:39.652Z)
Latitude
-0.0001°
Longitude
-81.1172°
Altitude
218.099 km
Speed
7.78 km/s
True Right ascension
12h 16m 36s
True Declination
0° 00' 00"
Sunlit
Object was in full shadow at epoch
Visualization orbit readout
Latitude
Unknown
Longitude
Unknown
Altitude
Unknown
Speed
Unknown
Apparent Right ascension
Unknown
Apparent Declination
Unknown
Sunlit
N/A
Visualization observer readout
Local Sidereal Time
14:26:28
Azimuth
Unknown
Elevation
Unknown
Doppler factor
Unknown
Orbital elements
Apogee altitude
227.12 km
Perigee altitude
211.351 km
Semi-major axis
6,597.372 km
Eccentricity
0.0012
Inclination
97.9294°
RAAN
184.1521°
Arg. of periapsis
341.6384°
True anomaly
18.4903°
Mean anomaly
18.4469°
Eccentric anomaly
18.46859°
Mean motion
4.0503 °/min
Orbital period
88.88 mins
BSTAR
0.0022208
Loading maneuver chart data...
Computing Atmospheric mass density...
Loading historical data...
Loading historical data...
Loading historical data...
Loading historical data...
Loading historical data...
Loading historical data...
Loading historical data...

Documentation

Showing up to 5 results
|